BEIDOU-3 M19 (C41)

Last updated on Sat Aug 15 2026 00:03:26 GMT+0000 (Coordinated Universal Time)

1 44864U 19090A 26226.19005966 -.00000039 00000+0 00000+0 0 9990 2 44864 56.6116 60.8745 0015940 295.6228 246.1978 1.86231523 45317
UTC large
Height (km)
Speed (km/s)
/
Latitude / Longitude
Inclination (degrees)
Orbital Period (minutes)
Azimuth
Elevation
Range (km)
Doppler Factor

Next 0 passes for location: London (51.5072 / 0.1276)

No passes found over London.
BEIDOU-3 M19 (C41)